{"data":{"norad_id":42835,"epoch":"2026-09-20T03:54:52.812000Z","epoch_age_seconds":77400,"freshness":"FRESH","line1":"1 42835U 17042L   26263.16311125  .00001704  00000+0  13398-3 0  9993","line2":"2 42835  97.4949  55.9281 0008878 164.0938 196.0568 15.02110174500763","mean_motion":15.02110174,"eccentricity":0.0008878,"inclination_deg":97.4949,"raan_deg":55.9281,"arg_perigee_deg":164.0938,"mean_anomaly_deg":196.0568,"bstar":0.00013398,"rev_number":50076,"period_min":95.865138584701,"perigee_km":554.23051217296,"apogee_km":566.55056166752,"semimajor_km":6938.5275369202,"source":"CELESTRAK","updated_at":"2026-09-20T09:00:14.217094Z"}}